Location: Newark
(39.5667°N, 8.9833°E)
Time: 11:35:35
(UTC+00:00)

Transit 4A - Visible Passes

Search period start: 16 October 2019 00:00
Search period end: 26 October 2019 00:00
Orbit: 866 x 978 km, 66.8° (Epoch: 15 October)

Date Brightness Start Highest point End Pass type
(mag) Time Alt. Az. Time Alt. Az. Time Alt. Az.
16 Oct 10.5 03:26:24 10° SSE 03:30:41 19° ESE 03:34:55 10° ENE visible
17 Oct 9.8 03:34:26 10° SSE 03:39:46 29° ESE 03:45:03 10° NE visible
18 Oct 9.1 03:42:59 10° S 03:48:56 43° ESE 03:54:50 10° NE visible
19 Oct 8.4 03:51:53 10° SSW 03:58:10 65° ESE 04:04:22 10° NE visible
20 Oct 10.5 02:18:47 10° SE 02:21:56 14° ESE 02:25:03 10° ENE visible
20 Oct 7.9 04:01:06 10° SSW 04:07:28 87° WNW 04:13:46 10° NNE visible
21 Oct 10.0 02:27:58 16° SE 02:30:59 22° ESE 02:35:39 10° ENE visible
21 Oct 8.0 04:11:35 15° SW 04:16:52 61° WNW 04:23:03 10° NNE visible
22 Oct 9.3 02:38:33 30° SE 02:40:05 33° ESE 02:45:37 10° NE visible
22 Oct 8.3 04:22:10 19° WSW 04:26:19 42° NW 04:32:14 10° NNE visible
23 Oct 8.6 02:48:53 49° SE 02:49:17 50° ESE 02:55:18 10° NE visible
23 Oct 8.8 04:32:28 19° W 04:35:52 30° NW 04:41:18 10° N visible
24 Oct 8.1 02:58:59 71° E 02:58:59 71° E 03:04:47 10° NNE visible
24 Oct 9.2 04:42:33 16° W 04:45:31 22° NW 04:50:14 10° N visible
25 Oct 10.6 01:25:21 12° ENE 01:25:21 12° ENE 01:26:01 10° ENE visible
25 Oct 8.1 03:08:54 62° N 03:08:54 62° N 03:14:09 10° NNE visible
25 Oct 9.5 04:52:28 12° WNW 04:55:15 16° NW 04:58:59 10° N visible
